TimeEST,TemperatureF,Dew PointF,Humidity,Sea Level PressureIn,VisibilityMPH,Wind Direction,Wind SpeedMPH,Gust SpeedMPH,PrecipitationIn,Events,Conditions,WindDirDegrees,DateUTC
12:51 AM,39.0,21.9,50,30.04,10.0,SSW,8.1,-,N/A,,Clear,200,2011-11-12 05:51:00
1:51 AM,41.0,21.9,47,30.04,10.0,SSW,9.2,-,N/A,,Clear,200,2011-11-12 06:51:00
2:51 AM,41.0,23.0,49,30.05,10.0,SSW,9.2,-,N/A,,Clear,200,2011-11-12 07:51:00
3:51 AM,42.1,24.1,49,30.05,10.0,SSW,8.1,-,N/A,,Clear,200,2011-11-12 08:51:00
4:51 AM,42.1,25.0,51,30.06,10.0,SSW,9.2,-,N/A,,Clear,200,2011-11-12 09:51:00
5:51 AM,44.1,26.1,49,30.07,10.0,SSW,10.4,-,N/A,,Clear,200,2011-11-12 10:51:00
6:51 AM,44.1,26.1,49,30.09,10.0,SSW,9.2,-,N/A,,Clear,200,2011-11-12 11:51:00
7:51 AM,45.0,27.0,49,30.11,10.0,SSW,10.4,-,N/A,,Clear,200,2011-11-12 12:51:00
8:51 AM,48.9,28.9,46,30.12,10.0,SSW,11.5,18.4,N/A,,Clear,200,2011-11-12 13:51:00
9:51 AM,53.1,30.0,41,30.12,10.0,SSW,10.4,18.4,N/A,,Clear,200,2011-11-12 14:51:00
10:51 AM,57.0,30.0,36,30.13,10.0,SSW,15.0,23.0,N/A,,Clear,210,2011-11-12 15:51:00
11:51 AM,60.1,30.0,32,30.12,10.0,SW,15.0,25.3,N/A,,Clear,220,2011-11-12 16:51:00
12:51 PM,62.6,28.4,27,30.09,10.0,SW,12.7,24.2,N/A,,Clear,220,2011-11-12 17:51:00
1:51 PM,64.0,28.0,26,30.07,10.0,SSW,16.1,24.2,N/A,,Clear,210,2011-11-12 18:51:00
2:51 PM,64.0,28.0,26,30.07,10.0,SW,12.7,21.9,N/A,,Clear,220,2011-11-12 19:51:00
3:51 PM,64.0,27.0,25,30.06,10.0,SSW,12.7,20.7,N/A,,Clear,210,2011-11-12 20:51:00
4:51 PM,61.0,27.0,27,30.06,10.0,SSW,6.9,-,N/A,,Clear,200,2011-11-12 21:51:00
5:51 PM,57.9,28.0,32,30.06,10.0,South,6.9,-,N/A,,Clear,190,2011-11-12 22:51:00
6:51 PM,57.9,26.1,30,30.06,10.0,South,10.4,-,N/A,,Clear,190,2011-11-12 23:51:00
7:51 PM,57.9,24.1,27,30.06,10.0,SSW,10.4,18.4,N/A,,Clear,200,2011-11-13 00:51:00
8:51 PM,57.0,24.1,28,30.05,10.0,South,9.2,-,N/A,,Clear,190,2011-11-13 01:51:00
9:51 PM,55.9,25.0,30,30.05,10.0,South,11.5,-,N/A,,Clear,190,2011-11-13 02:51:00
10:51 PM,55.0,25.0,31,30.05,10.0,South,9.2,-,N/A,,Clear,190,2011-11-13 03:51:00
11:51 PM,54.0,25.0,33,30.03,10.0,South,8.1,-,N/A,,Clear,190,2011-11-13 04:51:00